When you browse on this site, cookies collect data to enhance your experience and personalize the content and advertising you see.
Visit our Privacy Policy to learn more. By continuing to use the site, you agree to this use of cookies and data.
  • In Spain
  • List of Countries
  • For 7 days
  • Water Temperature
  • Weather Map
  • Weather Widgets
  • user-avatar
    Login

    Hourly Weather Uralsk

    Today, 23 August, Friday

    Time Temperature Precipitation Wind Pressure Humidity
    00:00 +22°C° 0 mm 3 mps 756 mmHg 55%
    01:00 +22°C° 0 mm 3 mps 756 mmHg 56%
    02:00 +21°C° 0 mm 3 mps 757 mmHg 57%
    03:00 +21°C° 0 mm 3 mps 757 mmHg 57%
    04:00 +21°C° 0 mm 3 mps 757 mmHg 55%
    05:00 +21°C° 0 mm 3 mps 757 mmHg 52%
    06:00 +22°C° 0 mm 3 mps 757 mmHg 50%
    07:00 +25°C° 0 mm 3 mps 757 mmHg 43%
    08:00 +27°C° 0 mm 3 mps 757 mmHg 36%
    09:00 +30°C° 0 mm 3 mps 757 mmHg 29%
    10:00 +31°C° 0 mm 3 mps 757 mmHg 27%
    11:00 +33°C° 0 mm 3 mps 757 mmHg 26%
    12:00 +34°C° 0 mm 3 mps 757 mmHg 24%
    13:00 +34°C° 0 mm 3 mps 757 mmHg 23%
    14:00 +35°C° 0 mm 3 mps 756 mmHg 23%
    15:00 +35°C° 0 mm 3 mps 756 mmHg 22%
    16:00 +34°C° 0 mm 3 mps 756 mmHg 25%
    17:00 +31°C° 0 mm 3 mps 756 mmHg 28%
    18:00 +30°C° 0 mm 3 mps 756 mmHg 31%
    19:00 +29°C° 0 mm 4 mps 756 mmHg 33%
    20:00 +28°C° 0 mm 4 mps 756 mmHg 36%
    21:00 +26°C° 0 mm 4 mps 757 mmHg 38%
    22:00 +25°C° 0 mm 4 mps 757 mmHg 41%
    23:00 +25°C° 0 mm 4 mps 756 mmHg 44%

    Tomorrow, 24 August, Saturday

    Time Temperature Precipitation Wind Pressure Humidity
    00:00 +23°C° 0 mm 4 mps 756 mmHg 47%
    01:00 +22°C° 0 mm 4 mps 757 mmHg 50%
    02:00 +22°C° 0 mm 4 mps 757 mmHg 54%
    03:00 +21°C° 0 mm 5 mps 757 mmHg 57%
    04:00 +21°C° 0 mm 5 mps 757 mmHg 58%
    05:00 +22°C° 0 mm 5 mps 757 mmHg 59%
    06:00 +22°C° 0 mm 5 mps 756 mmHg 60%
    07:00 +25°C° 0 mm 5 mps 757 mmHg 53%
    08:00 +27°C° 0 mm 5 mps 757 mmHg 46%
    09:00 +29°C° 0 mm 5 mps 757 mmHg 39%
    10:00 +32°C° 0 mm 5 mps 757 mmHg 34%
    11:00 +33°C° 0 mm 5 mps 756 mmHg 29%
    12:00 +35°C° 0 mm 4 mps 756 mmHg 23%
    13:00 +35°C° 0 mm 4 mps 756 mmHg 23%
    14:00 +35°C° 0 mm 5 mps 756 mmHg 22%
    15:00 +36°C° 0 mm 5 mps 755 mmHg 22%
    16:00 +34°C° 0 mm 6 mps 755 mmHg 28%
    17:00 +32°C° 0 mm 6 mps 755 mmHg 34%
    18:00 +30°C° 0 mm 7 mps 755 mmHg 40%
    19:00 +28°C° 0 mm 6 mps 755 mmHg 45%
    20:00 +26°C° 0 mm 6 mps 755 mmHg 51%
    21:00 +24°C° 0 mm 6 mps 756 mmHg 56%
    22:00 +23°C° 0 mm 6 mps 755 mmHg 56%
    23:00 +22°C° 0 mm 5 mps 755 mmHg 56%

    Day after tomorrow, 25 August, Sunday

    Time Temperature Precipitation Wind Pressure Humidity
    00:00 +21°C° 0 mm 5 mps 755 mmHg 56%
    01:00 +21°C° 0 mm 5 mps 755 mmHg 57%
    02:00 +20°C° 0 mm 5 mps 755 mmHg 58%
    03:00 +19°C° 0 mm 4 mps 755 mmHg 59%
    04:00 +19°C° 0 mm 5 mps 755 mmHg 59%
    05:00 +19°C° 0 mm 5 mps 755 mmHg 60%
    06:00 +19°C° 0 mm 5 mps 755 mmHg 60%
    07:00 +21°C° 0 mm 5 mps 755 mmHg 52%
    08:00 +23°C° 0 mm 5 mps 755 mmHg 45%
    09:00 +26°C° 0 mm 4 mps 755 mmHg 38%
    10:00 +27°C° 0 mm 4 mps 755 mmHg 33%
    11:00 +28°C° 0 mm 4 mps 755 mmHg 27%
    12:00 +29°C° 0 mm 3 mps 755 mmHg 22%
    13:00 +30°C° 0 mm 4 mps 754 mmHg 21%
    14:00 +30°C° 0 mm 4 mps 754 mmHg 20%
    15:00 +30°C° 0 mm 4 mps 754 mmHg 19%
    16:00 +29°C° 0 mm 4 mps 754 mmHg 23%
    17:00 +27°C° 0 mm 3 mps 754 mmHg 26%
    18:00 +26°C° 0 mm 3 mps 754 mmHg 30%
    19:00 +25°C° 0 mm 3 mps 754 mmHg 34%
    20:00 +22°C° 0 mm 3 mps 754 mmHg 39%
    21:00 +21°C° 0 mm 3 mps 755 mmHg 44%
    22:00 +20°C° 0 mm 4 mps 755 mmHg 50%
    23:00 +19°C° 0 mm 4 mps 755 mmHg 56%

    26 August, Monday

    Time Temperature Precipitation Wind Pressure Humidity
    00:00 +19°C° 0 mm 4 mps 755 mmHg 62%
    01:00 +18°C° 0 mm 4 mps 755 mmHg 65%
    02:00 +15°C° 0 mm 4 mps 755 mmHg 69%
    03:00 +14°C° 0 mm 4 mps 756 mmHg 72%
    04:00 +14°C° 0 mm 5 mps 756 mmHg 73%
    05:00 +14°C° 0 mm 5 mps 756 mmHg 74%
    06:00 +14°C° 0 mm 6 mps 756 mmHg 75%
    07:00 +15°C° 0 mm 6 mps 757 mmHg 69%
    08:00 +16°C° 0 mm 6 mps 757 mmHg 63%
    09:00 +18°C° 0 mm 7 mps 757 mmHg 58%
    10:00 +20°C° 0 mm 7 mps 757 mmHg 51%
    11:00 +21°C° 0 mm 7 mps 758 mmHg 44%
    12:00 +22°C° 0 mm 7 mps 758 mmHg 37%
    13:00 +22°C° 0 mm 7 mps 758 mmHg 35%
    14:00 +22°C° 0 mm 7 mps 758 mmHg 34%
    15:00 +22°C° 0 mm 7 mps 758 mmHg 33%
    16:00 +21°C° 0 mm 6 mps 758 mmHg 35%
    17:00 +20°C° 0 mm 5 mps 758 mmHg 37%
    18:00 +19°C° 0 mm 4 mps 758 mmHg 40%
    19:00 +18°C° 0 mm 4 mps 758 mmHg 45%
    20:00 +16°C° 0 mm 3 mps 759 mmHg 51%
    21:00 +14°C° 0 mm 3 mps 759 mmHg 56%
    22:00 +13°C° 0 mm 3 mps 759 mmHg 60%
    23:00 +12°C° 0 mm 3 mps 759 mmHg 65%

    27 August, Tuesday

    Time Temperature Precipitation Wind Pressure Humidity
    00:00 +13°C° 0 mm 2 mps 759 mmHg 69%
    01:00 +12°C° 0 mm 2 mps 759 mmHg 72%
    02:00 +12°C° 0 mm 2 mps 759 mmHg 76%
    03:00 +10°C° 0 mm 2 mps 759 mmHg 79%
    04:00 +11°C° 0 mm 1 mps 759 mmHg 77%
    05:00 +12°C° 0 mm 1 mps 759 mmHg 75%
    06:00 +12°C° 0 mm 1 mps 759 mmHg 73%
    07:00 +14°C° 0 mm 1 mps 759 mmHg 64%
    08:00 +16°C° 0 mm 2 mps 758 mmHg 54%
    09:00 +18°C° 0 mm 3 mps 758 mmHg 45%
    10:00 +19°C° 0 mm 3 mps 758 mmHg 39%
    11:00 +21°C° 0 mm 3 mps 757 mmHg 34%
    12:00 +22°C° 0 mm 3 mps 757 mmHg 29%
    13:00 +23°C° 0 mm 4 mps 756 mmHg 27%
    14:00 +23°C° 0 mm 4 mps 755 mmHg 26%
    15:00 +25°C° 0 mm 4 mps 755 mmHg 24%
    16:00 +23°C° 0 mm 4 mps 754 mmHg 27%
    17:00 +22°C° 0 mm 3 mps 754 mmHg 30%
    18:00 +21°C° 0 mm 2 mps 753 mmHg 33%
    19:00 +20°C° 0 mm 2 mps 753 mmHg 36%
    20:00 +19°C° 0 mm 2 mps 752 mmHg 38%
    21:00 +18°C° 0 mm 2 mps 752 mmHg 40%
    22:00 +18°C° 0 mm 2 mps 751 mmHg 43%
    23:00 +17°C° 0 mm 3 mps 751 mmHg 46%

    28 August, Wednesday

    Time Temperature Precipitation Wind Pressure Humidity
    00:00 +17°C° 0 mm 3 mps 750 mmHg 48%
    01:00 +17°C° 0 mm 4 mps 749 mmHg 50%
    02:00 +16°C° 0 mm 5 mps 749 mmHg 52%
    03:00 +16°C° 0 mm 5 mps 748 mmHg 54%
    04:00 +15°C° 2.8 mm 5 mps 747 mmHg 65%
    05:00 +14°C° 2.8 mm 5 mps 747 mmHg 76%
    06:00 +14°C° 2.8 mm 5 mps 747 mmHg 87%
    07:00 +14°C° 0.3 mm 6 mps 747 mmHg 83%
    08:00 +14°C° 0.3 mm 6 mps 746 mmHg 78%
    09:00 +14°C° 0.3 mm 7 mps 746 mmHg 73%
    10:00 +14°C° 0.1 mm 7 mps 747 mmHg 64%
    11:00 +15°C° 0.1 mm 8 mps 747 mmHg 55%
    12:00 +16°C° 0.1 mm 8 mps 747 mmHg 46%
    13:00 +15°C° 0.1 mm 8 mps 747 mmHg 47%
    14:00 +15°C° 0.1 mm 8 mps 748 mmHg 48%
    15:00 +13°C° 0.1 mm 8 mps 748 mmHg 49%
    16:00 +12°C° 0 mm 8 mps 748 mmHg 53%
    17:00 +11°C° 0 mm 8 mps 748 mmHg 57%
    18:00 +10°C° 0 mm 8 mps 749 mmHg 60%
    19:00 +9°C° 0 mm 8 mps 748 mmHg 63%
    20:00 +9°C° 0 mm 8 mps 748 mmHg 66%
    21:00 +9°C° 0 mm 8 mps 748 mmHg 69%
    22:00 +9°C° 0 mm 8 mps 748 mmHg 69%
    23:00 +8°C° 0 mm 9 mps 748 mmHg 68%
    Show more